Retour au catalogue

STARLINK-34071

ActifCommunicationsVLEO
NORAD 63910·PAYLOAD·🇺🇸 United States

Lancé May 10, 2025 depuis Cape Canaveral Space Force Station

Loading…

Prochains Passages (prochaines 24 heures)

TLE

FraisSource: CelesTrak SupGP

Époque: Sep 14, 2026, 22:50 UTC

1 63910C 25095W   26257.95187500 -.00022258  00000+0 -80617-3 0  2579
2 63910  42.9998 187.5797 0001292 265.8608 340.9039 15.27590802    13

Suivez STARLINK-34071 en temps réel avec AllMySat

Download on the App Store